{"data":{"norad_id":52296,"intl_designator":"2022-041AM","name":"STARLINK-3766","alt_names":[],"object_type":"PAYLOAD","status":"ACTIVE","operator":null,"country":"US","launch_date":"2022-04-21","launch_site_code":"AFETR","launch_vehicle":null,"mission":null,"orbit_class":"UNKNOWN","rcs_meters":null,"size_class":null,"mass_kg":null,"dimensions":null,"purposes":["comms"],"wikipedia_slug":null,"has_3d_model":false,"image_url":null,"decayed_at":null,"tle_current":{"epoch":"2026-05-25T04:13:25.162752Z","epoch_age_seconds":55956,"freshness":"FRESH","line1":"1 52296U 22041AM  26145.17598568  .00001608  00000+0  11907-3 0  9995","line2":"2 52296  53.2131 115.7641 0001547  65.4566 294.6587 15.08841305226056","mean_motion":15.08841305,"eccentricity":0.0001547,"inclination_deg":53.2131,"raan_deg":115.7641,"arg_perigee_deg":65.4566,"mean_anomaly_deg":294.6587,"bstar":0.00011907,"rev_number":22605,"period_min":95.437472133625,"perigee_km":538.66920462496,"apogee_km":540.80959558315,"semimajor_km":6917.8764001041,"source":"CELESTRAK","updated_at":"2026-05-25T13:38:17.087135Z"}}}